Regional Weather Roundup
Issued by NWS Portland, ME

Current Version | Previous Version | Text Only | Print | Product List | Glossary Off
Versions: 1 2 3 4 5 6 7 8 9 10 11 12 13 14 15 16 17 18 19 20 21 22 23 24 25 26 27 28 29 30 31 32 33 34 35 36 37 38 39 40 41 42 43 44 45 46 47 48 49 50

000
ASUS41 KGYX 271410
RWRGYX
WEATHER ROUNDUP FOR MAINE AND NEW HAMPSHIRE
NATIONAL WEATHER SERVICE GRAY ME
900 AM EST TUE JAN 27 2015

MEZ002-005-006-010-012-015-018-020-021-024-026-027-029-271500-
MAINE

CITY           SKY/WX    TMP DP  RH WIND       PRES   REMARKS
PORTLAND       HVY SNOW  12   7  80 N24G38    29.68F VSB 1/4 WCI  -8
SANFORD        CLOUDY    12   5  73 N32G44    29.62F VSB<1/4 WCI -10
BAR HARBOR     CLOUDY    12  12 100 N32G43    29.67F VSB<1/4 WCI -10
WISCASSET      HVY SNOW   9   6  88 N12G23    29.71R VSB<1/4 WCI  -6
ROCKLAND       CLOUDY    12  10  92 N24G39    29.66S VSB<1/4 WCI  -8
FRYEBURG       SNOW      14   9  80 NE12G26   29.77F VSB 1/2 WCI   0
LEWISTONAUBURN CLOUDY    10   7  85 N23G37    29.72R VSB 1/4 WCI -10
AUGUSTA        HVY SNOW   7   3  84 N25G43    29.75F VSB<1/4 WCI -15
WATERVILLE     CLOUDY     9   1  72 N28G39    29.75F VSB<1/4 WCI -13
BANGOR         HVY SNOW   8   4  83 N25G37    29.80F VSB 1/4 WCI -13
GREENVILLE       N/A      2  -4  76 N13G22    29.81F WCI -15
MILLINOCKET    SNOW       5  -1  76 N13G28    29.96F VSB 1/2 WCI -12
HOULTON        HVY SNOW   8   3  80 N21       29.97F VSB 1/4 WCI -12
PRESQUE ISLE   CLOUDY     3 -15  43 N18       30.09F WCI -17
FRENCHVILLE    CLOUDY     1 -10  60 NE16G24   30.12F WCI -19
CARIBOU        CLOUDY     3  -6  66 NE15G25   30.10F WCI -16
$$

NHZ002-005-008-009-011-012-014-271500-
NEW HAMPSHIRE

CITY           SKY/WX    TMP DP  RH WIND       PRES   REMARKS
PORTSMOUTH     HVY SNOW  14  10  83 N24G39    29.58F VSB 1/8 WCI  -6
ROCHESTER      FOG       13   9  84 MISG      29.61F VSB<1/4
NASHUA         HVY SNOW  15  13  92 N20G31    29.63F WCI  -2
MANCHESTER     HVY SNOW  15  11  83 N24G30    29.62F VSB 1/8 WCI  -4
CONCORD        HAZE      16  11  80 N15G28    29.68F VSB 1/2 WCI   1
LACONIA        CLOUDY    16  10  79 NE9G21    29.68F VSB 1/4
PLYMOUTH       LGT SNOW  16  14  92 W10G18    29.72F WCI   3
BERLIN         LGT SNOW   8   1  73 N12G22    29.79F VSB 3/4 WCI  -7
WHITEFIELD     SNOW      10   5  80 E9        29.77F VSB 1/2
JAFFREY        HVY SNOW  14  10  84 N9G21     29.60F VSB 1/4
KEENE          CLOUDY    12  10  92 N17       29.68F VSB 1/2 WCI  -5
LEBANON        SNOW      13   9  84 NW9       29.77S VSB 1/2
MT WASHINGTON  SNOW       0   0 100 NE83G90     N/A  VSB 1/16WCI -37
$$

VTZ005-007-008-271500-
VERMONT

CITY           SKY/WX    TMP DP  RH WIND       PRES   REMARKS
ST JOHNSBURY     N/A     11   3  70 MISG      29.82F
MONTPELIER     LGT SNOW   7  -2  66 N14       29.85F VSB 1   WCI -10
BURLINGTON     CLOUDY     9  -3  58 N14       29.95S WCI  -7
$$

MAZ007-012-024-CTZ003-RIZ002-NYZ038-NYZ072-271500-
SOUTHERN NEW ENGLAND AND NY

CITY           SKY/WX    TMP DP  RH WIND       PRES   REMARKS
BOSTON         HVY SNOW  15  13  91 N23G37    29.56F VSB 1/4 WCI  -3
WORCESTER      FOG       14  11  87 NE23G43   29.48F VSB<1/4 WCI  -5
NANTUCKET      HVY SNOW  32  29  88 NE53G69   29.19F VSB 1/4 WCI  14
PROVIDENCE     LGT SNOW  16  12  84 N26G43    29.48F VSB 3/4 WCI  -3
HARTFORD       SNOW      18  13  80 N17G33    29.61F VSB 1/2 WCI   3
ALBANY         LGT SNOW  13   1  59 N10       29.84S WCI   0
NEW YORK CITY  CLOUDY    23  15  71 N22G30    29.68R WCI   8
$$

ANZ081-ANZ082-ANZ150-NHZ014-MEZ023>029-271500-
COASTAL MARINE OBSERVATIONS

STATION/POSITION TIME  TEMP    WIND        PRES    WAVE
                       AIR SEA DIR/SP/G            HT/PER
                 (UTC) (F)     (DEG/KT/KT) (MB)    (FT/S)
MOUNT DESERT ROC 1400   20                  998.9F
MATINICUS ROCK   1400           20/ 46/ 56  999.6F
PORTLAND WX BUOY 1350   17 41   20/ 35/ 45 1003.1F  13/11
WELLS            1300   13 29   10/ 20/ 32 1004.0R
ISLE OF SHOALS   1400   17      20/ 45/ 53  999.7F
JEFFREYS LEDGE   1321      44                N/A    24/12
CASHES LEDGE BUO 1350   26 45   30/ 39/ 51  995.7   32/11
$$

.............KEY..............
   WCI - WIND CHILL
   TC  - TEMPERATURE IN CELSIUS
   VSB - VISIBILITY IN MILES
   HX  - HEAT INDEX
   FAIR- INDICATES FEW OR NO CLOUDS BELOW 12,000 FT, WITH NO
         SIGNIFICANT WEATHER AND/OR OBSTRUCTIONS TO VISIBILITY.





USA.gov is the U.S. government's official web portal to all federal, state and local government web resources and services.